Location: Gajan
(43.0218°N, 1.1244°E)
Time: 01:53:21
(UTC+00:00)

IRIDIUM 103 - Pass Details

Date: 22 April 2021
Orbit: 776 x 779 km, 86.4° (Epoch: 15 May)

Event Time Altitude Azimuth Distance (km) Brightness Sun altitude
Exits shadow 20:21:37 - 184° (S) 2,758 6.9 -16.3°
Reaches altitude 10° 20:22:44 10° 185° (S) 2,323 6.5 -16.5°
Maximum altitude 20:27:56 82° 273° (W) 792 4.4 -17.3°
Drops below altitude 10° 20:33:11 10° 1° (N) 2,338 7.3 -18.0°
Sets 20:35:33 0° 3° (N) 3,270 8.1 -18.4°
